Zurück zum Katalog

SL-19 DEB

AktivUNKNOWN
NORAD 23479·DEBRIS·🇷🇺 Russia

Gestartet Dec 26, 1994 von Baikonur Cosmodrome

Loading…

Nächste Überflüge (nächste 24 Stunden)

TLE

AktuellSource: Space-Track

Epoche: Sep 14, 2026, 11:31 UTC

1 23479U 94085C   26257.48047839  .00000168  00000-0  49918-2 0  9994
2 23479  65.0433  77.4276 0090699 323.5864  63.6362 11.45285163323443

Verfolge SL-19 DEB in Echtzeit mit AllMySat

Download on the App Store